Air Sicilia Virtual Airways - Route

Air Sicilia Virtual Airways - SIC192L

( IT ) LICG
Pantelleria Airport
PANTELLERIA ( PNL )
plane_to ( IT ) LICD
Lampedusa Airport
LAMPEDUSA ( LMP )
IVAO VFR ITALY 2018 - LEG: 1

AIRPORT NEAR NAVIGATION AIDS

Type Name Frequency
VOR-DME Pantelleria 116100 KHZ
NDB Pantelleria 335 KHZ

METAR / TAF
LICG 211150Z 18014KT CAVOK 21/11 Q1018

RUNWAY INFORMATION

Runway Runway length Runway width Runway elevation Runway displaced threshold Runway heading
03 4003 98 620 0 28
21 4003 98 591 0 208
08 5495 148 635 0 76
26 5495 148 603 0 256

AIRPORT FREQUENCIES

Type Name Frequency
TWR TWR 118.45 MHZ

AIRPORT NEAR NAVIGATION AIDS

Type Name Frequency
VOR-DME Lampedusa 108600 KHZ
NDB Lampedusa 373 KHZ

METAR / TAF
LICD 211150Z 03006KT CAVOK 20/11 Q1018
LICD 211100Z 2112/2212 15010KT CAVOK

RUNWAY INFORMATION

Runway Runway length Runway width Runway elevation Runway displaced threshold Runway heading
08 5906 148 48 0 81
26 5906 148 70 0 261

AIRPORT FREQUENCIES

Type Name Frequency
AFIS INFO 122.1 MHZ

Flightplan

via LINOSA

Air Sicilia Virtual Airways Fleets

AVAILABLE AIRCRAFTS for route at this time in Pantelleria Airport
BE58 - Beechcraft Baron 58
( US ) Beechcraft

Aircraft in fleet: 7

C172 - Cessna 172 Skyhawk
( US ) Cessna

Aircraft in fleet: 13

C208 - Cessna 208 Caravan
( US ) Cessna

Aircraft in fleet: 13

PC12 - Pilatus PC12 Eagle
( CH ) Pilatus

Aircraft in fleet: 4

110 NM

Distance in nautical miles.

€ 200,00

Ticket price for this flight.

Nr. 1

Leg



12-11-2018
Aerosoft Airport Rio de Janeiro International V2.0 XP

L'Aeroporto Internazionale di Rio de Janeiro-Galeão (IATA: GIG, ICAO: SBGL), costruito nel 1952 nel quartiere di Ilha do Governador ed intitolato al musicista Antônio Carlos Jobim, è il principale aeroporto internazio ....


15-10-2018
Aerosoft A320 Family professional

La gamma di aeromobili A320 è una delle più comuni nei cieli. Questi aerei di linea a doppio-getto a corto e medio raggio si sono dimostrati convenienti, affidabili e prontamente disponibili, rendendoli le opzioni migl ....


10-10-2018
Motore critico ( Critical Engine )

Il motore critico di un velivolo ad ala fissa multi-motore è il motore che, in caso di guasto, influirebbe negativamente sulle prestazioni o sulla capacità di manovra di un aereo. Sui velivoli ad elica, vi è un ....


04-10-2018
Aerosoft Dortmund XP

Scopri il centro della regione della Ruhr su XPlane 11 - lo scenario Dortmund XP è una ricostruzione completa della città di Dortmund per il simulatore di volo targato Laminar. Oltre all'intera area urbana di Dortmu ....


07-08-2018
Aerosoft Professional Flight Planner PFPX

PFPX - Professional Flight Planner X - è un nuovo ed innovativo strumento di pianificazione del volo sviluppato da piloti e dispatcher del mondo reale. È un'aggiunta preziosa e realistica alla tua esperienza di simulaz ....